Retour au catalogue

STARLINK-2402

ActifCommunicationsVLEO
NORAD 47819·PAYLOAD·🇺🇸 United States

Lancé Mar 11, 2021 depuis Cape Canaveral Space Force Station

Loading…

Prochains Passages (prochaines 24 heures)

TLE

FraisSource: CelesTrak SupGP

Époque: Sep 15, 2026, 01:27 UTC

1 47819C 21018AJ  26258.06090278  .00006144  00000+0  19755-3 0  2588
2 47819  53.1575  81.7514 0001078  75.7386 269.9135 15.31701346    12

Suivez STARLINK-2402 en temps réel avec AllMySat

Download on the App Store